Home   Weather   Peoria   Past weeks

Flag for USA Past Weather in Peoria, Illinois, USA — Yesterday and Last 2 Weeks

Now
59 °F

Mostly cloudy.


Feels Like: 58 °F
Forecast: 44 / 60 °F
Wind: 6 mph from Southeast

Location: Greater Peoria Regional Airport

Current Time: Apr 28, 2017 at 4:57:46 pm

Latest Report: Apr 28, 2017 at 4:04 pm


Visibility: 10 mi

Pressure: 29.80 "Hg

Humidity: 84%

Dew Point: 54 °F

Location of PeoriaLocation

Past Weather in Peoria — Graph

°F

Peoria Temperature Yesterday

Maximum temperature yesterday: 52 °F (at 4:54 pm)
Minimum temperature yesterday: 41 °F (at 7:54 am)
Average temperature yesterday: 47 °F

High & Low Weather Summary for the Past Weeks

 TemperatureHumidityPressure
High82 °F (Apr 19, 4:54 pm)100% (Apr 16, 4:29 am)30.19 "Hg (Apr 16, 4:29 am)
Low36 °F (Apr 23, 5:54 am)11% (Apr 23, 6:54 pm)29.39 "Hg (Apr 26, 5:54 am)
Average60 °F64%29.91 "Hg
* Reported Apr 13 4:54 pm — Apr 28 4:04 pm, Peoria, Weather by CustomWeather, © 2017

Note: Actual official high and low records may vary slightly from our data, if they occured in-between our weather recording intervals... More about our weather records

Advertising

Peoria Weather History for the Previous 24 Hours

Scroll right to see more
 ConditionsComfort  
Time TempWeatherWind HumidityBarometerVisibility
4:04 pm
Fri, Apr 28
59 °FMostly cloudy.6 mph84%29.80 "Hg10 mi
2:54 pm57 °FBroken clouds.8 mph87%29.79 "Hg10 mi
2:18 pm56 °FOvercast.9 mph87%29.81 "Hg10 mi
1:54 pm56 °FPartly sunny.8 mph90%29.81 "Hg9 mi
1:25 pm54 °FMostly cloudy.6 mph93%29.84 "Hg9 mi
12:53 pm52 °FLight rain. Fog.7 mph97%29.85 "Hg5 mi
12:24 pm52 °FLight rain. Fog.8 mph97%29.87 "Hg2 mi
11:54 am53 °FRain. Fog.6 mph93%29.89 "Hg2 mi
10:54 am56 °FOvercast.8 mph77%29.89 "Hg10 mi
9:54 am53 °FOvercast.7 mph89%29.89 "Hg7 mi
9:37 am50 °FCloudy.7 mph93%29.89 "Hg7 mi
8:54 am49 °FLight rain. Mostly cloudy.6 mph93%29.90 "Hg7 mi
7:54 am49 °FPartly sunny.7 mph90%29.88 "Hg9 mi
6:54 am48 °FSunny.5 mph93%29.89 "Hg7 mi
5:54 am47 °FClear.No wind90%29.88 "Hg10 mi
4:54 am49 °FClear.6 mph90%29.88 "Hg10 mi
3:54 am48 °FClear.5 mph89%29.87 "Hg10 mi
2:54 am49 °FClear.No wind84%29.85 "Hg10 mi
1:54 am49 °FPartly cloudy.7 mph86%29.84 "Hg10 mi
12:54 am49 °FClear.6 mph86%29.88 "Hg10 mi
11:54 pm
Thu, Apr 27
49 °FPassing clouds.7 mph86%29.88 "Hg10 mi
10:54 pm47 °FPassing clouds.7 mph86%29.87 "Hg10 mi
9:54 pm49 °FOvercast.3 mph80%29.85 "Hg10 mi
8:54 pm50 °FOvercast.3 mph77%29.83 "Hg10 mi
7:54 pm51 °FOvercast.3 mph69%29.80 "Hg10 mi
6:54 pm52 °FOvercast.7 mph66%29.78 "Hg10 mi
5:54 pm51 °FOvercast.10 mph66%29.76 "Hg10 mi
5:14 pm51 °FPartly sunny.13 mph66%29.75 "Hg10 mi
4:54 pm52 °FPartly sunny.13 mph64%29.74 "Hg10 mi
Weather by CustomWeather, © 2017

See weather overviewHow to use our weather pages